EW6086 Weather Reports


Display with metric or nautical units.
time (UTC)temp
F
wind
direction
speed
MPH
gust
MPH
rain 1hr
in
rain 24hr
in
rain mn
in
humidity
%
barometer
mb
20190223184859 0 344 0.0 25.0 0.00 0.01 0.03 1012.5
20190223184403 0 347 0.0 26.0 0.01 0.01 0.03 1012.4
20190223183858 0 347 0.0 26.0 0.01 0.01 0.03 1012.4
20190223183409 0 343 0.0 24.0 0.01 0.01 0.03 1012.5
20190223182858 0 336 0.0 25.0 0.01 0.01 0.03 1012.6
20190223182401 0 348 0.0 25.0 0.01 0.01 0.03 1012.6
20190223181857 0 356 0.0 23.0 0.01 0.01 0.03 1012.6
20190223181401 0 317 0.0 23.0 0.01 0.01 0.03 1012.7
20190223180857 0 329 0.0 23.0 0.01 0.01 0.03 1012.8
20190223180401 0 327 0.0 29.0 0.01 0.01 0.03 1012.9
20190223175855 0 326 0.0 29.0 0.01 0.01 0.03 1012.8
20190223175357 0 343 0.0 28.0 0.01 0.01 0.03 1012.5
20190223174854 0 316 0.0 14.0 0.01 0.01 0.03 1012.2
20190223174357 0 309 0.0 12.0 0.00 0.00 0.02 1012.4
20190223173853 0 305 0.0 7.0 0.00 0.00 0.02 1012.4
20190223173356 0 274 0.0 7.0 0.00 0.00 0.02 1012.4
20190223172854 0 274 0.0 7.0 0.00 0.00 0.02 1012.3
20190223172357 0 264 0.0 6.0 0.00 0.00 0.02 1012.3
20190223171853 0 264 0.0 9.0 0.00 0.00 0.02 1012.2
20190223171354 0 282 0.0 11.0 0.00 0.00 0.02 1012.2
20190223170852 0 282 0.0 11.0 0.00 0.00 0.02 1012.3
20190223170355 0 277 0.0 6.0 0.00 0.00 0.02 1012.3
20190223165552 0 282 0.0 12.0 0.00 0.04 0.02 1012.3
20190223165051 0 286 0.0 12.0 0.00 0.04 0.02 1012.2
20190223164553 0 261 0.0 8.0 0.00 0.04 0.02 1012.2
20190223164052 0 272 0.0 9.0 0.00 0.04 0.02 1012.3
20190223163552 0 259 0.0 9.0 0.00 0.04 0.02 1012.3
20190223163050 0 251 0.0 9.0 0.00 0.04 0.02 1012.3
20190223162552 0 251 0.0 8.0 0.00 0.04 0.02 1012.4
20190223162051 0 249 0.0 10.0 0.00 0.04 0.02 1012.4
20190223161554 0 263 0.0 10.0 0.00 0.04 0.02 1012.2
20190223161050 0 251 0.0 11.0 0.00 0.04 0.02 1012.1
20190223160552 0 263 0.0 11.0 0.00 0.04 0.02 1012.1
20190223160050 0 278 0.0 11.0 0.00 0.04 0.02 1012.2
20190223155551 0 267 0.0 14.0 0.00 0.04 0.02 1012.1
20190223155052 0 246 0.0 14.0 0.00 0.04 0.02 1012.1
20190223154551 0 233 0.0 10.0 0.00 0.04 0.02 1012.1
20190223154051 0 225 0.0 10.0 0.00 0.04 0.02 1012.1
20190223153552 0 234 0.0 9.0 0.00 0.04 0.02 1012.1
20190223153051 0 238 0.0 8.0 0.00 0.04 0.02 1012.0
20190223152551 0 232 0.0 8.0 0.00 0.04 0.02 1012.0
20190223152050 0 257 0.0 8.0 0.00 0.04 0.02 1012.1
20190223151551 0 272 0.0 7.0 0.00 0.04 0.02 1012.1
20190223151051 0 242 0.0 6.0 0.00 0.04 0.02 1011.8
20190223150551 0 186 0.0 3.0 0.00 0.04 0.02 1011.5
20190223150051 0 186 0.0 6.0 0.00 0.04 0.02 1011.3
20190223145550 0 186 0.0 7.0 0.00 0.04 0.02 1011.2
20190223145048 0 186 0.0 8.0 0.00 0.04 0.02 1011.1
20190223144548 0 186 0.0 8.0 0.00 0.04 0.02 1011.1
20190223144050 0 187 0.0 7.0 0.00 0.04 0.02 1011.0
20190223143551 0 196 0.0 6.0 0.00 0.04 0.02 1010.8
20190223143050 0 196 0.0 6.0 0.00 0.04 0.02 1010.7
20190223142548 0 196 0.0 6.0 0.00 0.04 0.02 1010.7
20190223142048 0 196 0.0 4.0 0.00 0.04 0.02 1010.7
20190223141547 0 196 0.0 4.0 0.00 0.04 0.02 1010.5
20190223141047 0 196 0.0 4.0 0.00 0.04 0.02 1010.5
20190223140550 0 196 0.0 4.0 0.00 0.04 0.02 1010.4
20190223140047 0 196 0.0 4.0 0.00 0.04 0.02 1010.5
20190223135547 0 196 0.0 6.0 0.00 0.04 0.02 1010.4
20190223135046 0 196 0.0 6.0 0.00 0.04 0.02 1010.4
20190223134549 0 196 0.0 4.0 0.00 0.04 0.02 1010.2
20190223134048 0 196 0.0 3.0 0.00 0.04 0.02 1010.3
20190223133545 0 196 0.0 3.0 0.00 0.04 0.02 1010.2
20190223133044 0 196 0.0 4.0 0.00 0.04 0.02 1010.2
20190223132544 0 196 0.0 4.0 0.00 0.04 0.02 1010.3
20190223132040 0 196 0.0 4.0 0.00 0.04 0.02 1010.2
20190223131541 0 196 0.0 4.0 0.00 0.04 0.02 1010.1
20190223131038 0 196 0.0 4.0 0.00 0.04 0.02 1009.9
20190223130536 0 196 0.0 6.0 0.00 0.04 0.02 1009.9
20190223130036 0 196 0.0 7.0 0.00 0.04 0.02 1009.9
20190223125537 0 196 0.0 7.0 0.00 0.04 0.02 1009.8
20190223125037 0 191 0.0 9.0 0.00 0.04 0.02 1009.8
20190223124541 0 178 0.0 10.0 0.00 0.04 0.02 1009.5
20190223124035 0 178 0.0 10.0 0.00 0.04 0.02 1009.4
20190223123536 0 179 0.0 10.0 0.00 0.04 0.02 1009.3
20190223123035 0 180 0.0 12.0 0.00 0.04 0.02 1009.2
20190223122534 0 178 0.0 12.0 0.01 0.04 0.02 1009.1
20190223122034 0 183 0.0 13.0 0.01 0.04 0.02 1009.0
20190223121534 0 174 0.0 13.0 0.01 0.04 0.02 1008.9
20190223121033 0 177 0.0 12.0 0.01 0.04 0.02 1008.9
20190223120535 0 180 0.0 14.0 0.01 0.04 0.02 1008.8
20190223120035 0 188 0.0 15.0 0.01 0.04 0.02 1008.8
20190223115537 0 186 0.0 15.0 0.01 0.04 0.02 1008.7
20190223115035 0 174 0.0 15.0 0.01 0.04 0.02 1008.7
20190223114536 0 170 0.0 16.0 0.01 0.04 0.02 1008.6
20190223114035 0 164 0.0 16.0 0.01 0.04 0.02 1008.7
20190223113536 0 182 0.0 13.0 0.01 0.04 0.02 1008.7
20190223113033 0 168 0.0 13.0 0.01 0.04 0.02 1008.7
20190223112535 0 184 0.0 12.0 0.00 0.03 0.01 1008.6
20190223112030 0 176 0.0 10.0 0.00 0.03 0.01 1008.6
20190223111535 0 178 0.0 10.0 0.00 0.03 0.01 1008.7
20190223111030 0 191 0.0 12.0 0.00 0.03 0.01 1008.7
20190223110535 0 197 0.0 12.0 0.00 0.03 0.01 1008.7
20190223110032 0 191 0.0 15.0 0.00 0.03 0.01 1008.6
20190223105532 0 186 0.0 15.0 0.00 0.03 0.01 1008.4
20190223105031 0 178 0.0 16.0 0.00 0.03 0.01 1008.2
20190223104534 0 175 0.0 16.0 0.00 0.03 0.01 1008.2
20190223104030 0 171 0.0 16.0 0.00 0.03 0.01 1008.2
20190223103528 0 176 0.0 17.0 0.00 0.03 0.01 1008.2
20190223103026 0 167 0.0 17.0 0.00 0.03 0.01 1008.2
20190223102526 0 171 0.0 15.0 0.00 0.03 0.01 1008.3
20190223102025 0 173 0.0 14.0 0.00 0.03 0.01 1008.4
20190223101527 0 172 0.0 15.0 0.00 0.03 0.01 1008.4
20190223101021 0 174 0.0 15.0 0.00 0.03 0.01 1008.3
20190223100522 0 159 0.0 14.0 0.00 0.03 0.01 1008.3
20190223100022 0 166 0.0 14.0 0.00 0.03 0.01 1008.3
20190223095521 0 176 0.0 14.0 0.00 0.03 0.01 1008.3
20190223095015 0 182 0.0 15.0 0.00 0.03 0.01 1008.3
20190223094528 0 186 0.0 15.0 0.00 0.03 0.01 1008.4
20190223094015 0 161 0.0 15.0 0.00 0.03 0.01 1008.4
20190223093518 0 173 0.0 14.0 0.00 0.03 0.01 1008.4
20190223093008 0 186 0.0 14.0 0.00 0.03 0.01 1008.7
20190223092516 0 189 0.0 14.0 0.00 0.03 0.01 1008.6
20190223092006 0 178 0.0 13.0 0.00 0.03 0.01 1008.6
20190223091514 0 184 0.0 12.0 0.00 0.03 0.01 1008.5
20190223091004 0 168 0.0 12.0 0.00 0.03 0.01 1008.3
20190223090512 0 169 0.0 14.0 0.00 0.03 0.01 1008.3
20190223085959 0 168 0.0 14.0 0.00 0.03 0.01 1008.4
20190223085520 0 167 0.0 16.0 0.00 0.03 0.01 1008.4
20190223084954 0 166 0.0 16.0 0.01 0.03 0.01 1008.5
20190223084458 0 165 0.0 14.0 0.01 0.03 0.01 1008.7
20190223083953 0 169 0.0 13.0 0.01 0.03 0.01 1008.6
20190223083509 0 173 0.0 13.0 0.01 0.03 0.01 1008.7
20190223082953 0 168 0.0 12.0 0.01 0.03 0.01 1008.8
20190223082453 0 176 0.0 12.0 0.01 0.03 0.01 1008.9
20190223081950 0 174 0.0 12.0 0.01 0.03 0.01 1009.0
20190223081502 0 164 0.0 12.0 0.01 0.03 0.01 1009.0
20190223080950 0 172 0.0 12.0 0.01 0.03 0.01 1009.0
20190223080503 0 166 0.0 12.0 0.01 0.03 0.01 1009.0
20190223075951 0 170 0.0 13.0 0.01 0.03 0.01 1009.1
20190223075453 0 168 0.0 13.0 0.01 0.03 0.01 1009.1
20190223074951 0 162 0.0 13.0 0.00 0.02 0.00 1009.0
20190223074456 0 180 0.0 13.0 0.00 0.02 0.00 1009.1
20190223073950 0 170 0.0 11.0 0.00 0.02 0.00 1009.1
20190223073455 0 170 0.0 12.0 0.00 0.02 0.00 1009.1
20190223072951 0 176 0.0 12.0 0.00 0.02 0.00 1009.1
20190223072458 0 176 0.0 11.0 0.00 0.02 0.00 1009.1
20190223071951 0 173 0.0 10.0 0.00 0.02 0.00 1009.1
20190223071454 0 171 0.0 9.0 0.00 0.02 0.00 1009.2
20190223070951 0 175 0.0 12.0 0.00 0.02 0.00 1009.4
20190223070455 0 172 0.0 12.0 0.00 0.02 0.00 1009.5
20190223065949 0 178 0.0 9.0 0.00 0.02 0.00 1009.5
20190223065455 0 169 0.0 9.0 0.00 0.02 0.00 1009.5
20190223064951 0 169 0.0 9.0 0.00 0.02 0.00 1009.5
20190223064506 0 161 0.0 9.0 0.00 0.02 0.00 1009.5
20190223063949 0 166 0.0 9.0 0.00 0.02 0.00 1009.5
20190223063452 0 166 0.0 9.0 0.01 0.02 0.00 1009.6
20190223062946 0 166 0.0 8.0 0.01 0.02 0.00 1009.6
20190223062449 0 162 0.0 6.0 0.01 0.02 0.00 1009.6
20190223061945 0 158 0.0 6.0 0.01 0.02 0.00 1009.7
20190223061449 0 154 0.0 6.0 0.01 0.02 0.00 1009.7
20190223060945 0 151 0.0 5.0 0.01 0.02 0.00 1009.8
20190223060452 0 150 0.0 5.0 0.01 0.02 0.00 1009.7
20190223055947 0 120 0.0 5.0 0.01 0.02 0.04 1009.7
20190223055447 0 68 0.0 4.0 0.01 0.02 0.04 1009.7
20190223054945 0 53 0.0 4.0 0.01 0.02 0.04 1009.8
20190223054506 0 39 0.0 3.0 0.01 0.02 0.04 1009.8
20190223053946 0 39 0.0 3.0 0.01 0.02 0.04 1009.9
20190223053502 0 39 0.0 3.0 0.00 0.01 0.03 1009.9
20190223052945 0 39 0.0 2.0 0.00 0.01 0.03 1010.0
20190223052500 0 39 0.0 2.0 0.00 0.01 0.03 1010.1
20190223051945 0 39 0.0 2.0 0.00 0.01 0.03 1010.1
20190223051500 0 39 0.0 2.0 0.00 0.01 0.03 1010.1
20190223050944 0 39 0.0 3.0 0.00 0.01 0.03 1010.3
20190223050458 0 39 0.0 3.0 0.00 0.01 0.03 1010.2
20190223045943 0 39 0.0 3.0 0.00 0.01 0.03 1010.3
20190223045450 0 39 0.0 3.0 0.00 0.01 0.03 1010.2
20190223044948 0 39 0.0 4.0 0.00 0.01 0.03 1010.1
20190223044452 0 36 0.0 4.0 0.00 0.01 0.03 1010.2
20190223043949 0 36 0.0 3.0 0.00 0.01 0.03 1010.1
20190223043450 0 36 0.0 2.0 0.00 0.01 0.03 1010.2
20190223042945 0 36 0.0 1.0 0.00 0.01 0.03 1010.1
20190223042448 0 36 0.0 3.0 0.00 0.01 0.03 1010.3
20190223041944 0 36 0.0 3.0 0.00 0.01 0.03 1010.3
20190223041447 0 36 0.0 2.0 0.00 0.01 0.03 1010.4
20190223040943 0 36 0.0 2.0 0.00 0.01 0.03 1010.4
20190223040447 0 36 0.0 0.0 0.00 0.01 0.03 1010.5
20190223035940 0 36 0.0 0.0 0.00 0.01 0.03 1010.4
20190223035446 0 36 0.0 0.0 0.00 0.01 0.03 1010.6
20190223034942 0 36 0.0 0.0 0.00 0.01 0.03 1010.6
20190223034445 0 36 0.0 0.0 0.00 0.01 0.03 1010.6
20190223033942 0 36 0.0 0.0 0.00 0.01 0.03 1010.7
20190223033448 0 36 0.0 0.0 0.00 0.01 0.03 1010.7
20190223032941 0 36 0.0 1.0 0.00 0.01 0.03 1010.8
20190223032444 0 36 0.0 3.0 0.00 0.01 0.03 1010.7
20190223031940 0 36 0.0 3.0 0.00 0.01 0.03 1010.8
20190223031445 0 34 0.0 4.0 0.00 0.01 0.03 1010.7
20190223030940 0 34 0.0 4.0 0.00 0.01 0.03 1010.8
20190223030445 0 34 0.0 3.0 0.00 0.01 0.03 1010.8
20190223025939 0 34 0.0 3.0 0.00 0.01 0.03 1010.9
20190223025444 0 34 0.0 3.0 0.00 0.01 0.03 1010.9
20190223024938 0 34 0.0 4.0 0.00 0.01 0.03 1010.9
20190223024444 0 34 0.0 5.0 0.01 0.01 0.03 1010.9
20190223023939 0 34 0.0 5.0 0.01 0.01 0.03 1010.9
20190223023443 0 23 0.0 4.0 0.01 0.01 0.03 1010.9
20190223022940 0 23 0.0 3.0 0.01 0.01 0.03 1011.1
20190223022444 0 23 0.0 3.0 0.01 0.01 0.03 1011.1
20190223021937 0 23 0.0 3.0 0.01 0.01 0.03 1011.2
20190223021444 0 23 0.0 4.0 0.01 0.01 0.03 1011.0
20190223020936 0 23 0.0 4.0 0.01 0.01 0.03 1011.0
20190223020454 0 23 0.0 4.0 0.01 0.01 0.03 1010.9
20190223015938 0 23 0.0 4.0 0.01 0.01 0.03 1010.9
20190223015441 0 22 0.0 4.0 0.01 0.01 0.03 1010.8
20190223014935 0 21 0.0 4.0 0.01 0.01 0.03 1010.8
20190223014443 0 21 0.0 5.0 0.00 0.00 0.02 1010.7
20190223013934 0 23 0.0 5.0 0.00 0.00 0.02 1010.8
20190223013440 0 23 0.0 5.0 0.00 0.00 0.02 1010.8
20190223012934 0 10 0.0 7.0 0.00 0.00 0.02 1010.7
20190223012442 0 10 0.0 7.0 0.00 0.00 0.02 1010.6
20190223011935 0 7 0.0 6.0 0.00 0.00 0.02 1010.7
20190223011440 0 2 0.0 6.0 0.00 0.00 0.02 1010.7
20190223010936 0 1 0.0 6.0 0.00 0.00 0.02 1010.7
20190223010447 0 7 0.0 6.0 0.00 0.00 0.02 1010.6
20190223005935 0 7 0.0 6.0 0.00 0.00 0.02 1010.6
20190223005435 0 7 0.0 6.0 0.00 0.00 0.02 1010.6
20190223004929 0 4 0.0 6.0 0.00 0.00 0.02 1010.4
20190223004436 0 5 0.0 7.0 0.00 0.00 0.02 1010.4
20190223003930 0 3 0.0 7.0 0.00 0.00 0.02 1010.4
20190223003433 0 359 0.0 8.0 0.00 0.00 0.02 1010.5
20190223002925 0 352 0.0 8.0 0.00 0.00 0.02 1010.4
20190223002433 0 5 0.0 8.0 0.00 0.00 0.02 1010.5
20190223001921 0 1 0.0 8.0 0.00 0.00 0.02 1010.5
20190223001432 0 11 0.0 10.0 0.00 0.00 0.02 1010.4
20190223000920 0 344 0.0 10.0 0.00 0.00 0.02 1010.5
20190223000428 0 349 0.0 9.0 0.00 0.00 0.02 1010.4
20190222235916 0 347 0.0 7.0 0.00 0.00 0.02 1010.4
20190222235429 0 340 0.0 9.0 0.00 0.00 0.02 1010.4
20190222234916 0 347 0.0 9.0 0.00 0.00 0.02 1010.4
20190222234425 0 336 0.0 9.0 0.00 0.00 0.02 1010.5
20190222233915 0 335 0.0 9.0 0.00 0.00 0.02 1010.4
20190222233433 0 336 0.0 8.0 0.00 0.00 0.02 1010.3
20190222232917 0 338 0.0 7.0 0.00 0.00 0.02 1010.4
20190222232423 0 336 0.0 7.0 0.00 0.00 0.02 1010.4
20190222231915 0 328 0.0 7.0 0.00 0.00 0.02 1010.4
20190222231424 0 336 0.0 9.0 0.00 0.00 0.02 1010.3
20190222230915 0 322 0.0 9.0 0.00 0.00 0.02 1010.4
20190222230426 0 335 0.0 8.0 0.00 0.00 0.02 1010.4
20190222225915 0 347 0.0 8.0 0.00 0.00 0.02 1010.3
20190222225430 0 337 0.0 9.0 0.00 0.00 0.02 1010.3
20190222224915 0 326 0.0 9.0 0.00 0.00 0.02 1010.4
20190222224423 0 330 0.0 8.0 0.00 0.00 0.02 1010.3
20190222223915 0 334 0.0 9.0 0.00 0.00 0.02 1010.2
20190222223422 0 338 0.0 9.0 0.00 0.00 0.02 1010.2
20190222222915 0 331 0.0 8.0 0.00 0.00 0.02 1010.1
20190222222424 0 332 0.0 8.0 0.00 0.00 0.02 1010.1
20190222221915 0 336 0.0 9.0 0.00 0.00 0.02 1010.0
20190222221423 0 319 0.0 9.0 0.00 0.00 0.02 1010.3
20190222220915 0 333 0.0 9.0 0.00 0.00 0.02 1010.1
20190222220423 0 344 0.0 8.0 0.00 0.00 0.02 1010.1
20190222215914 0 347 0.0 8.0 0.00 0.00 0.02 1010.1
20190222215423 0 340 0.0 8.0 0.00 0.00 0.02 1010.1
20190222214908 0 7 0.0 8.0 0.00 0.00 0.02 1010.1
20190222214421 0 344 0.0 8.0 0.00 0.00 0.02 1010.1
20190222213907 0 333 0.0 7.0 0.00 0.00 0.02 1010.1
20190222213416 0 342 0.0 8.0 0.00 0.00 0.02 1010.1
20190222212906 0 343 0.0 10.0 0.00 0.00 0.02 1010.2
20190222212418 0 341 0.0 10.0 0.00 0.00 0.02 1010.2
20190222211904 0 322 0.0 9.0 0.00 0.00 0.02 1010.2
20190222211417 0 319 0.0 10.0 0.00 0.00 0.02 1010.3
20190222210903 0 343 0.0 10.0 0.00 0.00 0.02 1010.1
20190222210410 0 333 0.0 9.0 0.00 0.00 0.02 1010.1
20190222205859 0 348 0.0 9.0 0.00 0.00 0.02 1010.1
20190222205402 0 330 0.0 8.0 0.00 0.00 0.02 1010.1
20190222204859 0 331 0.0 8.0 0.00 0.00 0.02 1010.1
20190222204406 0 336 0.0 9.0 0.00 0.00 0.02 1010.4
20190222203859 0 344 0.0 9.0 0.00 0.00 0.02 1010.4
20190222203408 0 334 0.0 9.0 0.00 0.00 0.02 1010.4
20190222202901 0 324 0.0 8.0 0.00 0.00 0.02 1010.4
20190222202408 0 340 0.0 8.0 0.00 0.00 0.02 1010.5
20190222201900 0 347 0.0 8.0 0.00 0.00 0.02 1010.5
20190222201403 0 337 0.0 9.0 0.00 0.00 0.02 1010.7
20190222200901 0 344 0.0 9.0 0.00 0.00 0.02 1010.7
20190222200413 0 331 0.0 9.0 0.00 0.00 0.02 1010.8
20190222195859 0 356 0.0 9.0 0.00 0.00 0.02 1010.8
20190222195405 0 340 0.0 8.0 0.00 0.00 0.02 1010.9
20190222194857 0 340 0.0 7.0 0.00 0.00 0.02 1010.9
20190222194402 0 340 0.0 7.0 0.00 0.00 0.02 1011.0
20190222193857 0 339 0.0 8.0 0.00 0.00 0.02 1011.1
20190222193401 0 351 0.0 9.0 0.00 0.00 0.02 1011.2
20190222192858 0 347 0.0 9.0 0.00 0.00 0.02 1011.2
20190222192400 0 351 0.0 9.0 0.00 0.00 0.02 1011.3
20190222191859 0 349 0.0 9.0 0.00 0.00 0.02 1011.4
20190222191401 0 349 0.0 8.0 0.00 0.00 0.02 1011.5
20190222190856 0 338 0.0 8.0 0.00 0.00 0.02 1011.7
20190222190357 0 342 0.0 8.0 0.00 0.00 0.02 1011.8
20190222185855 0 329 0.0 9.0 0.00 0.00 0.02 1012.0
20190222185400 0 337 0.0 10.0 0.00 0.00 0.02 1012.0